Weather History for Erie, CO

Change the Weather History Date:

Wednesday, October 17, 2012

  Actual Average (KBJC) Record (KBJC)
Temperature  
Mean Temperature 52 °F -  
Max Temperature 59 °F 63 °F 85 °F (1991)
Min Temperature 40 °F 39 °F 20 °F (1984)
Degree Days  
Heating Degree Days 13    
Growing Degree Days 2 (Base 50)    
Moisture  
Dew Point 7 °F    
Average Humidity 17    
Maximum Humidity 34    
Minimum Humidity 10    
Precipitation  
Precipitation 0.00 in - - ()
Sea Level Pressure  
Sea Level Pressure 29.86 in    
Wind  
Wind Speed 18 mph (WNW)    
Max Wind Speed 29 mph    
Max Gust Speed 40 mph    
Visibility 10 miles    
Events      
Averages and records for this station are not official NWS values.
T = Trace of Precipitation, MM = Missing Value Source: NWS Daily Summary

Daily Weather History Graph

Daily Weather History Graph

Search for Another Location

Airport:

Trip Planner

Search our weather history database for the weather conditions in past years. The results will help you decide how hot, cold, wet, or windy it might be!

Date:

Astronomy

Oct. 17, 2012 Rise Set
Actual Time 7:13 AM MDT 6:16 PM MDT
Civil Twilight 6:45 AM MDT 6:44 PM MDT
Nautical Twilight 6:14 AM MDT 7:15 PM MDT
Astronomical Twilight 5:43 AM MDT 7:46 PM MDT
Moon 9:50 AM MDT (10/17) 7:55 PM MDT (10/17)
Length of Visible Light 11h 58m
Length of Day
11h 03m
Waxing Crescent, 7% of the Moon is Illuminated
Oct 17
Waxing Crescent
Oct 21
First Quarter
Oct 29
Full
Nov 6
Last Quarter
Nov 13
New

Hourly Weather History & Observations

Time (MDT) Temp. Windchill Dew Point Humidity Pressure Visibility Wind Dir Wind Speed Gust Speed Precip Events Conditions
12:15 AM 54.3 °F - 26.1 °F 34% 29.68 in 10.0 mi West 28.8 mph 39.1 mph N/A   Scattered Clouds
12:35 AM 55.4 °F - 21.2 °F 26% 29.70 in 10.0 mi West 21.9 mph 34.5 mph N/A   Clear
12:55 AM 55.6 °F - 18.9 °F 24% 29.72 in 10.0 mi West 25.3 mph 31.1 mph N/A   Clear
1:15 AM 56.3 °F - 16.0 °F 21% 29.72 in 10.0 mi WNW 19.6 mph 31.1 mph N/A   Clear
1:35 AM 56.5 °F - 12.4 °F 17% 29.73 in 10.0 mi West 20.7 mph 34.5 mph N/A   Clear
1:55 AM 55.8 °F - 12.0 °F 18% 29.75 in 10.0 mi West 20.7 mph 29.9 mph N/A   Clear
2:15 AM 55.4 °F - 7.5 °F 15% 29.75 in 10.0 mi WNW 16.1 mph 29.9 mph N/A   Clear
2:35 AM 54.0 °F - 10.6 °F 18% 29.76 in 10.0 mi West 18.4 mph 23.0 mph N/A   Clear
2:55 AM 53.6 °F - 10.9 °F 18% 29.76 in 10.0 mi WNW 13.8 mph 24.2 mph N/A   Clear
3:15 AM 52.0 °F - 13.1 °F 21% 29.75 in 10.0 mi WNW 9.2 mph - N/A   Clear
3:35 AM 49.5 °F - 14.4 °F 25% 29.75 in 10.0 mi NW 5.8 mph - N/A   Clear
3:55 AM 46.8 °F - 14.7 °F 28% 29.75 in 10.0 mi North 5.8 mph - N/A   Clear
4:15 AM 50.0 °F - 14.7 °F 25% 29.77 in 10.0 mi NW 12.7 mph 19.6 mph N/A   Clear
4:35 AM 49.8 °F - 14.4 °F 24% 29.77 in 10.0 mi NW 15.0 mph 21.9 mph N/A   Clear
4:55 AM 48.6 °F - 13.3 °F 24% 29.78 in 10.0 mi WNW 11.5 mph 18.4 mph N/A   Clear
5:15 AM 49.3 °F - 9.7 °F 20% 29.78 in 10.0 mi NNW 17.3 mph 28.8 mph N/A   Clear
5:55 AM 47.1 °F - 10.0 °F 22% 29.80 in 10.0 mi West 12.7 mph 16.1 mph N/A   Clear
6:15 AM 48.0 °F - 8.6 °F 20% 29.82 in 10.0 mi WNW 16.1 mph 21.9 mph N/A   Clear
6:35 AM 48.6 °F - 7.0 °F 18% 29.84 in 10.0 mi WNW 12.7 mph 21.9 mph N/A   Clear
6:55 AM 47.3 °F - 7.0 °F 19% 29.86 in 10.0 mi NNW 12.7 mph 21.9 mph N/A   Clear
7:15 AM 48.2 °F - 6.6 °F 18% 29.86 in 10.0 mi WNW 20.7 mph 38.0 mph N/A   Clear
7:35 AM 46.9 °F - 7.5 °F 20% 29.87 in 10.0 mi NW 24.2 mph 29.9 mph N/A   Clear
7:55 AM 47.7 °F - 8.6 °F 21% 29.90 in 10.0 mi WNW 18.4 mph 32.2 mph N/A   Clear
8:15 AM 47.8 °F - 9.5 °F 21% 29.90 in 10.0 mi WNW 12.7 mph 24.2 mph N/A   Clear
8:35 AM 48.7 °F - 9.9 °F 21% 29.92 in 10.0 mi NW 12.7 mph 18.4 mph N/A   Clear
8:55 AM 49.5 °F - 8.2 °F 19% 29.93 in 10.0 mi NNW 24.2 mph 33.4 mph N/A   Clear
9:15 AM 50.0 °F - 8.4 °F 19% 29.94 in 10.0 mi NW 20.7 mph 28.8 mph N/A   Clear
9:35 AM 50.0 °F - 7.5 °F 18% 29.94 in 10.0 mi NW 19.6 mph 29.9 mph N/A   Clear
9:55 AM 50.7 °F - 7.5 °F 17% 29.94 in 10.0 mi WNW 20.7 mph 27.6 mph N/A   Clear
10:15 AM 50.9 °F - 8.6 °F 18% 29.94 in 10.0 mi West 18.4 mph 29.9 mph N/A   Clear
10:35 AM 51.1 °F - 6.1 °F 16% 29.94 in 10.0 mi WNW 17.3 mph 31.1 mph N/A   Clear
10:55 AM 52.3 °F - 6.3 °F 16% 29.92 in 10.0 mi WNW 17.3 mph 27.6 mph N/A   Clear
11:15 AM 52.5 °F - 5.7 °F 15% 29.92 in 10.0 mi WNW 21.9 mph 34.5 mph N/A   Clear
11:35 AM 53.6 °F - 5.7 °F 15% 29.91 in 10.0 mi WNW 25.3 mph 36.8 mph N/A   Clear
11:55 AM 53.8 °F - 5.9 °F 15% 29.90 in 10.0 mi WNW 21.9 mph 40.3 mph N/A   Clear
12:15 PM 54.5 °F - 6.1 °F 14% 29.91 in 7.0 mi WNW 23.0 mph 38.0 mph N/A   Clear
12:35 PM 55.6 °F - 6.3 °F 14% 29.90 in 10.0 mi WNW 24.2 mph 34.5 mph N/A   Clear
12:55 PM 56.1 °F - 5.5 °F 13% 29.90 in 10.0 mi West 21.9 mph 33.4 mph N/A   Clear
1:15 PM 56.7 °F - 5.0 °F 13% 29.89 in 10.0 mi West 13.8 mph 27.6 mph N/A   Clear
1:35 PM 57.7 °F - 4.5 °F 12% 29.88 in 10.0 mi WNW 19.6 mph 26.5 mph N/A   Clear
1:55 PM 58.1 °F - 4.5 °F 12% 29.87 in 10.0 mi WNW 18.4 mph 33.4 mph N/A   Clear
2:15 PM 58.1 °F - 3.7 °F 11% 29.86 in 10.0 mi WNW 19.6 mph 27.6 mph N/A   Clear
2:35 PM 58.6 °F - 3.9 °F 11% 29.86 in 10.0 mi WNW 20.7 mph 29.9 mph N/A   Clear
2:55 PM 58.8 °F - 2.8 °F 11% 29.86 in 10.0 mi WNW 19.6 mph 25.3 mph N/A   Clear
3:15 PM 58.8 °F - 3.4 °F 11% 29.86 in 10.0 mi WNW 19.6 mph 28.8 mph N/A   Clear
3:35 PM 59.0 °F - 2.3 °F 10% 29.86 in 10.0 mi West 18.4 mph 26.5 mph N/A   Clear
3:55 PM 59.0 °F - 2.8 °F 10% 29.85 in 10.0 mi West 19.6 mph 24.2 mph N/A   Clear
4:15 PM 58.3 °F - 2.3 °F 11% 29.86 in 10.0 mi WNW 17.3 mph 28.8 mph N/A   Clear
4:35 PM 58.6 °F - 1.6 °F 10% 29.85 in 10.0 mi WNW 16.1 mph 24.2 mph N/A   Clear
4:55 PM 57.7 °F - 1.9 °F 11% 29.85 in 10.0 mi West 17.3 mph 25.3 mph N/A   Clear
5:15 PM 57.6 °F - 1.6 °F 10% 29.86 in 10.0 mi WNW 10.4 mph - N/A   Clear
5:35 PM 56.7 °F - 1.2 °F 11% 29.86 in 10.0 mi WNW 13.8 mph 19.6 mph N/A   Clear
5:55 PM 54.7 °F - 2.5 °F 12% 29.86 in 10.0 mi WNW 8.1 mph - N/A   Clear
6:15 PM 50.9 °F - 3.4 °F 14% 29.87 in 10.0 mi West 8.1 mph - N/A   Clear
6:35 PM 48.7 °F - 4.3 °F 16% 29.88 in 10.0 mi WNW 3.5 mph - N/A   Clear
6:55 PM 47.7 °F - 4.6 °F 17% 29.88 in 10.0 mi WNW 6.9 mph - N/A   Clear
7:15 PM 51.3 °F - 2.5 °F 14% 29.89 in 10.0 mi NNW 5.8 mph 19.6 mph N/A   Clear
7:35 PM 49.3 °F - 4.5 °F 16% 29.89 in 10.0 mi WNW 6.9 mph - N/A   Clear
7:55 PM 50.4 °F - 4.8 °F 16% 29.90 in 10.0 mi WNW 8.1 mph - N/A   Clear
8:15 PM 51.3 °F - 4.5 °F 15% 29.90 in 10.0 mi WNW 6.9 mph 19.6 mph N/A   Clear
8:35 PM 50.0 °F - 6.1 °F 17% 29.92 in 10.0 mi WNW 6.9 mph - N/A   Clear
8:55 PM 51.6 °F - 3.9 °F 14% 29.92 in 10.0 mi NNW 5.8 mph 21.9 mph N/A   Clear
9:15 PM 52.2 °F - 3.4 °F 14% 29.93 in 10.0 mi ENE 9.2 mph - N/A   Clear
9:35 PM 48.9 °F - 3.7 °F 16% 29.94 in 10.0 mi ESE 9.2 mph - N/A   Clear
9:55 PM 50.0 °F - 3.0 °F 15% 29.95 in 10.0 mi East 8.1 mph - N/A   Clear
10:15 PM 52.5 °F - 3.4 °F 14% 29.96 in 10.0 mi WNW 8.1 mph - N/A   Clear
10:35 PM 49.5 °F - 4.5 °F 16% 29.96 in 10.0 mi NE 5.8 mph - N/A   Clear
10:55 PM 46.9 °F - 6.6 °F 19% 29.97 in 10.0 mi East 10.4 mph 17.3 mph N/A   Clear
11:15 PM 45.9 °F 40.8 °F 7.7 °F 21% 29.98 in 10.0 mi ESE 10.4 mph - N/A   Clear
11:35 PM 45.1 °F 39.9 °F 8.8 °F 23% 30.00 in 10.0 mi ESE 10.4 mph - N/A   Clear
11:55 PM 40.6 °F 33.4 °F 13.1 °F 33% 30.02 in 10.0 mi ESE 12.7 mph - N/A   Clear